{"data":{"norad_id":41579,"epoch":"2026-09-20T05:19:58.790208Z","epoch_age_seconds":68608,"freshness":"FRESH","line1":"1 41579U 16034A   26263.22220822 -.00000001  00000+0  37153-4 0  9993","line2":"2 41579  99.1926 270.2183 0001112  84.5596 275.5687 13.85910746520796","mean_motion":13.85910746,"eccentricity":0.0001112,"inclination_deg":99.1926,"raan_deg":270.2183,"arg_perigee_deg":84.5596,"mean_anomaly_deg":275.5687,"bstar":3.7153e-5,"rev_number":52079,"period_min":103.90279490625,"perigee_km":942.18250731684,"apogee_km":943.81072743335,"semimajor_km":7321.1336173751,"source":"CELESTRAK","updated_at":"2026-09-20T09:00:14.147351Z"}}